www.pogodaiklimat.ru

Погода и климат >> Архив погоды >> Россия >> Адыгея >> Даховская


ПОГОДА в Даховской

  • Прогноз погоды в Даховской
  • Монитор погоды в Даховской

АРХИВ ПОГОДЫ в Даховской

Время (UTC), дата Ветер
(напр.,м/с)
 
Видим.   Явления Облачность Т
(С)
Тd
(С)
f
(%)
Тe
(С)
Тes
(С)
Комфортность P
(гПа)
Po
(гПа)
Тmin
(С)
Tmax
(С)
R
(мм)
R24
(мм)
S
(см)
06 19.05 штиль 0 50 км в посл. час ливневой дождь 9/9 1000 м
[Cb cap]
+18.8 +14.4 76 +20 +21 1007.4 950.4
09 19.05 С 2 50 км гроза без осадков 8/8 1000 м
[Cb calv]
+22.6 +16.3 68 +27 +31 душно 1007.2 951.0
12 19.05 С 2 20 км гроза без осадков {ливн. осадки} 10/10 1000 м
[Cb calv]
+19.7 +17.0 84 +23 +23 комфорт 1010.1 953.2
15 19.05 СЗ 1 20 км {гроза} 10/10 600 м
[Cb cap]
+18.0 +14.2 78 +19 +19 1011.4 954.0 +23.4 8
18 19.05 штиль 0 20 км {гроза, ливн. осадки} 10/10 1000 м
[Sc diur, vesp]
+15.5 +15.5 100 +15 +15 1012.2 954.3
21 19.05 штиль 0 20 км 10/10 1000 м
[Sc]
+15.1 +15.1 100 +15 +15 1012.4 954.4
00 20.05 С 1 20 км 10/10 1000 м
[Sc]
+15.8 +15.8 100 +16 +16 1013.0 955.1
03 20.05 штиль 0 10 км гроза, ливневой дождь 10/10 600 м
[Cb calv]
+15.1 +15.1 100 +15 +15 1013.7 955.6 +14.2 10
06 20.05 штиль 0 10 км гроза, ливневой дождь 10/10 600 м
[Cb calv]
+15.2 +15.2 100 +15 +15 1015.0 956.9
09 20.05 штиль 0 10 км гроза, ливневой дождь 10/0 600 м
[Cb calv]
+14.6 +14.6 100 +14 +27 опасность
простуды
1017.2 958.8
12 20.05 Ю 1 10 км гроза, ливневой дождь 10/10 1000 м
[Cb calv]
+15.2 +15.2 100 +16 +16 1016.5 958.3
15 20.05 штиль 0 20 км {гроза, ливн. осадки} 4/0
[Ci]
+17.9 +15.7 87 +18 +20 1015.1 957.5 +18.0 28
18 20.05 штиль 0 20 км {гроза, ливн. осадки} 8/0
[Ci]
+12.9 +12.9 100 +12 +12 1017.2 958.5
21 20.05 штиль 0 20 км 6/0
[Ci]
+11.2 +11.2 100 +10 +10 1018.0 958.8
00 21.05 Ю 1 20 км 3/0
[Ci fib]
+9.3 +9.3 100 +8 +8 1018.1 958.5
03 21.05 штиль 0 50 км ясно +9.6 +9.6 100 +9 +10 1017.5 958.0 +8.8
06 21.05 СЗ 1 50 км ясно +17.2 +12.6 74 +18 +30 опасность
простуды
1016.5 958.6
09 21.05 С 2 50 км 1/1 1000 м
[Cu hum]
+23.1 +12.7 52 +26 +43 жарко 1015.2 958.5
12 21.05 С 2 50 км 1/1 1000 м
[Cu hum]
+25.4 +13.4 47 +27 +39 жарко 1013.9 957.7
15 21.05 ЮВ 1 20 км гроза без осадков 9/9 1000 м
[Cb calv]
+21.6 +13.8 61 +24 +25 комфорт 1014.6 957.7 +25.6
18 21.05 штиль 0 20 км в посл. час гроза {ливн. осадки} 10/10 1000 м
[Sc diur, vesp]
+14.9 +13.8 93 +15 +15 1014.6 957.6
21 21.05 штиль 0 20 км 9/8 1000 м
[Sc Ac cast]
+14.0 +14.0 100 +13 +13 1015.2 956.8
00 22.05 ЮВ 1 20 км 10/10 1000 м
[Sc]
+12.9 +12.9 100 +13 +13 1015.2 956.6
03 22.05 штиль 0 20 км 10/3 1000 м
[Sc Cs]
+12.3 +12.3 100 +12 +12 1015.0 956.3 +11.8 3
06 22.05 штиль 0 20 км 10/10 1000 м
[Sc]
+15.2 +15.2 100 +15 +15 1014.3 956.2
09 22.05 СВ 1 20 км гроза без осадков {ливн. осадки} 10/10 600 м
[Cb calv]
+17.1 +15.2 89 +18 +18 1014.3 956.0
12 22.05 С 2 20 км {гроза, ливн. осадки} 8/8 1000 м
[Cb cap]
+19.8 +15.7 77 +23 +25 комфорт 1012.9 955.8
15 22.05 Ю 2 50 км 1/1 1000 м
[Sc diur, vesp]
+21.1 +8.6 45 +22 +24 комфорт 1012.3 955.4 +22.3 5
18 22.05 З 1 50 км ясно +12.6 +12.6 100 +12 +12 1014.8 956.1
21 22.05 Ю 1 50 км ясно +10.0 +10.0 100 +9 +9 1015.4 956.1
00 23.05 штиль 0 50 км ясно +8.5 +8.5 100 +7 +7 1015.4 955.8
03 23.05 штиль 0 50 км 3/0
[Ac lent]
+7.4 +7.4 100 +6 +7 1015.5 955.7 +6.6
06 23.05 С 1 50 км 1/1 1000 м
[Sc]
+19.2 +10.3 56 +21 +32 комфорт 1011.8 954.5
09 23.05 З 1 50 км 9/9 1000 м
[Sc]
+21.2 +8.6 44 +22 +25 комфорт 1011.2 954.3
12 23.05 Ю 3-10
{11}
50 км 9/9 1000 м
[Sc]
+21.1 +7.3 41 +22 +23 комфорт 1010.6 953.7
15 23.05 Ю 3
{10}
50 км 8/8 1000 м
[Sc]
+21.8 +7.3 39 +23 +23 комфорт 1010.2 953.4 +23.5
18 23.05 штиль 0 50 км ясно +13.8 +8.4 70 +14 +14 1013.0 954.6
21 23.05 штиль 0 50 км ясно +9.8 +9.6 99 +9 +9 1013.9 954.7
00 24.05 штиль 0 50 км ясно +8.4 +8.4 100 +7 +7 1013.6 954.1
03 24.05 штиль 0 50 км ясно +8.4 +8.4 100 +7 +9 1013.6 954.1 +7.4
06 24.05 З 1 50 км ясно +18.0 +8.4 53 +19 +32 опасность
простуды
1013.6 953.3
09 24.05 С 2 50 км 10/0
[Cs]
+23.9 +9.6 40 +25 +40 комфорт 1008.9 952.7
12 24.05 С 3 50 км 4/1 1000 м
[Sc Ci fib]
+24.4 +10.6 42 +26 +35 жарко 1008.1 952.0
15 24.05 В 1 50 км 3/0
[Ci fib]
+23.4 +10.9 45 +26 +28 жарко 1007.8 951.5 +25.2
18 24.05 штиль 0 50 км 10/0
[Ac cast Cs]
+15.6 +12.4 81 +15 +15 1009.4 951.6
21 24.05 штиль 0 50 км 10/10 1000 м
[Sc]
+13.4 +13.4 100 +13 +13 1009.6 951.4
00 25.05 штиль 0 50 км 8/3 1000 м
[Sc Ci]
+12.4 +12.4 100 +12 +12 1009.5 951.1
03 25.05 штиль 0 50 км 1/0
[Ci fib]
+11.3 +11.3 100 +11 +12 1008.8 950.2 +11.1
06 25.05 В 1 10 км слаб. ливневой дождь 10/10 600 м
[Cb cap]
+16.9 +14.9 88 +18 +18 1007.1 949.8
09 25.05 СЗ 1 10 км гроза, ливневой дождь 10/10 600 м
[Cb calv]
+17.2 +17.2 100 +18 +18 1008.3 951.0
12 25.05 СЗ 1 50 км в посл. час гроза {ливн. осадки} 8/8 1000 м
[Sc diur, vesp]
+22.6 +15.4 64 +27 +30 душно 1005.3 949.2
15 25.05 З 2
{11}
50 км 4/4 1000 м
[Sc]
+20.4 +9.4 49 +22 +24 комфорт 1008.9 952.0 +23.6 2
18 25.05 З 1
{10}
50 км ясно +18.3 +6.0 44 +20 +20 1010.2 952.8
21 25.05 СВ 1 50 км ясно +16.1 +8.3 60 +17 +17 1011.4 953.6
00 26.05 ЮВ 1 50 км 3/3 1000 м
[Sc]
+15.3 +7.9 61 +16 +16 1011.9 953.8
03 26.05 С 3 50 км 3/3 1000 м
[Sc]
+16.3 +7.7 57 +16 +17 1012.1 954.2 +14.9

 

Местоположение метеостанции Даховская (Адыгея, Россия): широта 44.67 долгота 40.75 высота над уровнем моря 264 м.

В архиве по умолчанию представлена погода в Даховской за последнюю неделю. Архивные данные за месяц целиком и за предыдущие месяцы, начиная с января 2011 года, Вы можете получить, выбрав интересующий диапазон дат из раскрывающегося списка и нажав кнопку "Ввод!".


*Определитесь, кто Вы:
робот инопланетянин человек

Внимание! Время в таблицах - всемирное. Для получения местного времени необходимо прибавить поправку, которая равна 3 ч.

Смотрите также архив погоды в соседних городах и на ближайших метеорологических станциях:

Погода в Дондуковской (Адыгея, Россия) (38 км)
Погода в Армавире (Краснодарский край, Россия) (45 км)
Погода в Майкопе (Адыгея, Россия) (53 км)
Погода в Шунтуке (Адыгея, Россия) (55 км)
Погода в Псебае (Краснодарский край, Россия) (60 км)
Погода в Отрадной (Краснодарский край, Россия) (65 км)
Погода в Белореченске (Краснодарский край, Россия) (68 км)
Погода в Кропоткине (Краснодарский край, Россия) (86 км)
Погода в Гузерипле (Адыгея, Россия) (89 км)
Погода в Невинномысске (Ставропольский край, Россия) (97 км)

Пояснения к столбцам:

Ветер - указаны скорость ветра в м/с - средняя за 10 мин, порывы в срок и между сроками (в фигурных скобках) и направление, откуда дует ветер: С - северный, СВ - северо-восточный, В - восточный, ЮВ - юго-восточный, Ю - южный, ЮЗ - юго-западный, З - западный, СЗ - северо-западный.
Видимость - горизонтальная дальность видимости в метрах или километрах. При видимости от 1 до 10 км при отсутствии осадков обычно наблюдается дымка, при ухудшении видимости до 1 км и менее - туман. В сухую погоду видимость может ухудшаться дымом, пылью или мглою.
Явления - указаны атмосферные явления, наблюдавшиеся в срок или в последний час перед сроком; фигурными скобками обозначены явления, наблюдавшиеся между сроками (за 1-3 часа до срока); квадратными скобками обозначены град или гололедные отложения с указанием их диаметра в мм.
Облачность - указаны через наклонную черту общая и нижняя облачность в баллах и высота нижней границы облаков в метрах; квадратными скобками обозначены формы облаков: Ci - перистые, Cs - перисто-слоистые, Cc - перисто-кучевые, Ac - высококучевые, As - высокослоистые, Sc - слоисто-кучевые, Ns - слоисто-дождевые, Cu - кучевые, Cb - кучево-дождевые. Подробнее классификацию облаков см. в Атласе облаков (PDF).
T - Температура воздуха - температура, измеренная на высоте 2 м над землей.
Td - Температура точки росы - температура, при понижении до которой содержащийся в воздухе водяной пар достигнет насыщения.
f - Относительная влажность воздуха - влажноcть воздуха, измеренная на высоте 2 м над землей.
Te - Эффективная температура - температура, которую ощущает одетый по сезону человек в тени. Характеристика душности погоды. При расчете учитывается влияние влажности воздуха и скорости ветра на теплоощущения человека.
Tes - Эффективная температура на солнце - температура, которую ощущает человек, с поправкой на солнечный нагрев. Характеристика знойности погоды. Зависит от высоты солнца над горизонтом, облачности и скорости ветра. Ночью, в пасмурную погоду, а также при ветре 12 м/с и более поправка равна нулю.
P - Атмосферное давление - приведенное к уровню моря атмосферное давление.
Po - Атмосферное давление - измеренное на уровне метеостанции атмосферное давление.
Tmin - Минимальная температура - минимум температуры воздуха на высоте 2 м над землей.
Tmax - Максимальная температура - максимум температуры воздуха на высоте 2 м над землей.
R - Количество осадков - Количество выпавших осадков за период времени, мм. При наведении курсора мыши на число - период времени, за который выпало указанное количество осадков.
R24 - Количество осадков - Количество выпавших осадков за 24 часа, мм.
S - Снежный покров - Высота снежного покрова, см. При наведении курсора мыши на число - состояние снежного покрова и степень покрытия местности в баллах.